Weather History for Quillayute, WA

Change the Weather History Date:

Tuesday, December 2, 2014

  Actual Average Record
Temperature  
Mean Temperature 35 °F 41 °F  
Max Temperature 44 °F 47 °F 64 °F (1969)
Min Temperature 25 °F 35 °F 25 °F (2014)
Degree Days  
Heating Degree Days 30 24  
Month to date heating degree days 64 48  
Since 1 July heating degree days 1298 1762  
Cooling Degree Days 0 0  
Month to date cooling degree days 0 0  
Year to date cooling degree days 25 19  
Moisture  
Dew Point 28 °F    
Average Humidity 79    
Maximum Humidity 100    
Minimum Humidity 58    
Precipitation  
Precipitation 0.00 in 0.48 in 1.97 in (1975)
Month to date precipitation 0.00 0.96  
Year to date precipitation 90.94 87.51  
Sea Level Pressure  
Sea Level Pressure 30.05 in    
Wind  
Wind Speed 6 mph (NE)    
Max Wind Speed 18 mph    
Max Gust Speed 24 mph    
Visibility 8 miles    
Events      
T = Trace of Precipitation, MM = Missing Value Source: NWS Daily Summary

Daily Weather History Graph

Daily Weather History Graph

Search for Another Location

Airport:

Trip Planner

Search our weather history database for the weather conditions in past years. The results will help you decide how hot, cold, wet, or windy it might be!

Date:

Astronomy

Dec. 02, 2014 Rise Set
Actual Time 7:48 AM PST 4:27 PM PST
Civil Twilight 7:12 AM PST 5:02 PM PST
Nautical Twilight 6:33 AM PST 5:41 PM PST
Astronomical Twilight 5:56 AM PST 6:18 PM PST
Moon 2:28 PM PST (12/2) 3:19 AM PST (12/2)
Length of Visible Light 9h 50m
Length of Day
8h 38m
Waxing Gibbous, 85% of the Moon is Illuminated
Dec 2
Waxing Gibbous
Dec 6
Full
Dec 14
Last Quarter
Dec 21
New
Dec 28
First Quarter

Hourly Weather History & Observations

Time (PST) Temp. Windchill Dew Point Humidity Pressure Visibility Wind Dir Wind Speed Gust Speed Precip Events Conditions
12:53 AM 32.0 °F - 30.0 °F 92% 30.20 in 9.0 mi Calm Calm - N/A   Overcast
1:19 AM 32.0 °F - 30.0 °F 92% 30.19 in 9.0 mi Calm Calm - N/A   Overcast
1:53 AM 33.1 °F - 28.9 °F 85% 30.20 in 9.0 mi Calm Calm - N/A   Overcast
2:53 AM 32.0 °F - 30.0 °F 92% 30.20 in 8.0 mi Calm Calm - N/A   Overcast
3:53 AM 28.9 °F 25.2 °F 27.0 °F 92% 30.18 in 7.0 mi North 3.5 mph - N/A   Clear
4:53 AM 27.0 °F 23.0 °F 26.1 °F 96% 30.18 in 7.0 mi ENE 3.5 mph - N/A   Clear
5:53 AM 26.1 °F 21.9 °F 24.1 °F 92% 30.17 in 8.0 mi NNE 3.5 mph - N/A   Clear
6:53 AM 32.0 °F 25.6 °F 28.9 °F 88% 30.17 in 8.0 mi NNE 6.9 mph - N/A   Clear
7:53 AM 32.0 °F 25.6 °F 28.9 °F 88% 30.14 in 7.0 mi NNE 6.9 mph - N/A   Clear
8:53 AM 35.1 °F 27.9 °F 30.0 °F 82% 30.12 in 7.0 mi NE 9.2 mph - N/A   Clear
9:53 AM 37.9 °F 31.5 °F 30.9 °F 76% 30.12 in 7.0 mi NE 9.2 mph - N/A   Clear
10:53 AM 41.0 °F 35.8 °F 30.9 °F 67% 30.11 in 8.0 mi NE 8.1 mph - N/A   Clear
11:53 AM 44.1 °F 39.0 °F 30.9 °F 60% 30.08 in 8.0 mi NE 9.2 mph - N/A   Clear
12:53 PM 42.8 °F 36.6 °F 30.2 °F 61% 30.05 in 8.0 mi NE 11.5 mph - N/A   Clear
1:53 PM 43.0 °F 35.7 °F 30.0 °F 60% 30.03 in 8.0 mi NE 15.0 mph - N/A   Clear
2:53 PM 41.0 °F 33.5 °F 28.9 °F 62% 30.01 in 8.0 mi NE 13.8 mph - N/A   Clear
3:53 PM 39.0 °F 31.4 °F 27.0 °F 62% 29.98 in 8.0 mi NE 12.7 mph 19.6 mph N/A   Clear
4:53 PM 37.9 °F 29.6 °F 25.0 °F 60% 29.96 in 9.0 mi NE 13.8 mph - N/A   Clear
5:53 PM 37.0 °F 28.5 °F 26.1 °F 65% 29.92 in 9.0 mi NE 13.8 mph - N/A   Clear
6:53 PM 37.9 °F 32.7 °F 25.0 °F 60% 29.92 in 9.0 mi ENE 6.9 mph - N/A   Clear
7:53 PM 35.1 °F - 25.0 °F 67% 29.91 in 9.0 mi Calm Calm - N/A   Clear
8:53 PM 33.1 °F - 25.0 °F 72% 29.90 in 9.0 mi Calm Calm - N/A   Clear
9:53 PM 30.0 °F - 25.0 °F 82% 29.88 in 8.0 mi Calm Calm - N/A   Clear
10:53 PM 28.9 °F - 26.1 °F 89% 29.86 in 9.0 mi Calm Calm - N/A   Clear
11:53 PM 30.0 °F - 26.1 °F 85% 29.86 in 9.0 mi Calm Calm - N/A   Clear